EW6155 Weather Reports


Display with metric or nautical units.
time (UTC)temp
F
wind
direction
speed
MPH
gust
MPH
rain 1hr
in
rain 24hr
in
rain mn
in
humidity
%
barometer
mb
20210926012512 64 298 1.0 1.0 0.00 0.00 0.00 24 1021.2
20210926012013 64 298 0.0 1.0 0.00 0.00 0.00 25 1021.3
20210926011511 64 298 0.0 1.0 0.00 0.00 0.00 24 1021.2
20210926011011 64 298 0.0 1.0 0.00 0.00 0.00 24 1021.3
20210926010511 64 298 0.0 1.0 0.00 0.00 0.00 24 1021.3
20210926010010 65 298 0.0 1.0 0.00 0.00 0.00 24 1021.3
20210926005507 65 298 0.0 1.0 0.00 0.00 0.00 24 1021.2
20210926005007 66 300 0.0 1.0 0.00 0.00 0.00 24 1021.2
20210926004508 66 304 0.0 1.0 0.00 0.00 0.00 23 1021.2
20210926004007 67 304 0.0 1.0 0.00 0.00 0.00 23 1021.2
20210926003507 67 303 0.0 1.0 0.00 0.00 0.00 23 1021.2
20210926003006 68 304 0.0 1.0 0.00 0.00 0.00 22 1021.2
20210926002508 69 304 0.0 1.0 0.00 0.00 0.00 22 1021.2
20210926002007 69 307 0.0 1.0 0.00 0.00 0.00 21 1021.2
20210926001507 70 307 0.0 3.0 0.00 0.00 0.00 21 1021.2
20210926001007 71 85 1.0 4.0 0.00 0.00 0.00 20 1021.2
20210926000506 71 304 0.0 4.0 0.00 0.00 0.00 20 1021.2
20210926000007 71 87 0.0 2.0 0.00 0.00 0.00 20 1021.2
20210925235506 72 284 0.0 3.0 0.00 0.00 0.00 20 1021.2
20210925235007 72 127 1.0 4.0 0.00 0.00 0.00 19 1021.1
20210925234506 73 120 1.0 5.0 0.00 0.00 0.00 19 1021.1
20210925234008 73 102 1.0 5.0 0.00 0.00 0.00 19 1021.1
20210925233504 74 145 1.0 8.0 0.00 0.00 0.00 19 1021.1
20210925233004 73 172 3.0 8.0 0.00 0.00 0.00 19 1021.0
20210925232501 73 63 3.0 10.0 0.00 0.00 0.00 19 1021.0
20210925232000 74 128 4.0 10.0 0.00 0.00 0.00 18 1021.1
20210925231459 74 84 4.0 11.0 0.00 0.00 0.00 18 1021.1
20210925230959 74 77 3.0 11.0 0.00 0.00 0.00 18 1021.1
20210925230457 74 102 3.0 10.0 0.00 0.00 0.00 19 1021.1
20210925225956 74 118 4.0 10.0 0.00 0.00 0.00 18 1021.1
20210925225457 74 35 3.0 8.0 0.00 0.00 0.00 19 1021.1
20210925224957 74 124 4.0 8.0 0.00 0.00 0.00 18 1021.1
20210925224455 74 139 4.0 9.0 0.00 0.00 0.00 18 1021.2
20210925223956 75 83 4.0 9.0 0.00 0.00 0.00 18 1021.1
20210925223453 75 77 3.0 9.0 0.00 0.00 0.00 18 1021.2
20210925222953 75 122 3.0 6.0 0.00 0.00 0.00 18 1021.2
20210925222453 75 25 4.0 7.0 0.00 0.00 0.00 18 1021.2
20210925221951 75 115 3.0 7.0 0.00 0.00 0.00 18 1021.3
20210925221450 75 74 4.0 8.0 0.00 0.00 0.00 18 1021.2
20210925220950 75 72 4.0 9.0 0.00 0.00 0.00 18 1021.5
20210925220450 75 96 4.0 9.0 0.00 0.00 0.00 18 1021.3
20210925215948 75 113 5.0 11.0 0.00 0.00 0.00 18 1021.3
20210925215448 75 81 4.0 11.0 0.00 0.00 0.00 18 1021.5
20210925214949 75 79 4.0 9.0 0.00 0.00 0.00 18 1021.5
20210925214446 75 314 4.0 9.0 0.00 0.00 0.00 18 1021.6
20210925213944 75 37 4.0 10.0 0.00 0.00 0.00 18 1021.6
20210925213444 75 56 5.0 10.0 0.00 0.00 0.00 18 1021.6
20210925212945 75 29 4.0 10.0 0.00 0.00 0.00 18 1021.6
20210925212444 75 32 5.0 10.0 0.00 0.00 0.00 18 1021.6
20210925211945 75 134 6.0 12.0 0.00 0.00 0.00 19 1021.7
20210925211444 75 97 6.0 12.0 0.00 0.00 0.00 18 1021.8
20210925210945 75 101 6.0 12.0 0.00 0.00 0.00 19 1021.7
20210925210445 75 70 5.0 12.0 0.00 0.00 0.00 18 1021.8
20210925205945 75 72 5.0 12.0 0.00 0.00 0.00 18 1021.8
20210925205444 74 111 6.0 11.0 0.00 0.00 0.00 19 1021.8
20210925204942 74 96 7.0 14.0 0.00 0.00 0.00 18 1022.0
20210925204442 74 54 7.0 14.0 0.00 0.00 0.00 18 1022.0
20210925203943 75 76 6.0 12.0 0.00 0.00 0.00 19 1022.0
20210925203443 75 94 6.0 12.0 0.00 0.00 0.00 19 1022.1
20210925202943 74 113 6.0 15.0 0.00 0.00 0.00 19 1022.1
20210925202442 74 73 6.0 15.0 0.00 0.00 0.00 18 1022.2
20210925201942 75 89 6.0 12.0 0.00 0.00 0.00 18 1022.3
20210925201443 75 86 6.0 12.0 0.00 0.00 0.00 18 1022.3
20210925200942 74 53 6.0 15.0 0.00 0.00 0.00 19 1022.3
20210925200441 74 49 6.0 15.0 0.00 0.00 0.00 18 1022.5
20210925195940 74 61 6.0 13.0 0.00 0.00 0.00 18 1022.6
20210925195441 74 83 6.0 15.0 0.00 0.00 0.00 18 1022.8
20210925194940 74 98 7.0 15.0 0.00 0.00 0.00 19 1022.8
20210925194438 74 115 6.0 12.0 0.00 0.00 0.00 18 1022.8
20210925193938 74 96 5.0 12.0 0.00 0.00 0.00 19 1023.1
20210925193438 74 100 6.0 13.0 0.00 0.00 0.00 19 1023.2
20210925192936 74 113 6.0 13.0 0.00 0.00 0.00 19 1023.3
20210925192436 74 98 5.0 13.0 0.00 0.00 0.00 20 1023.3
20210925191937 74 229 6.0 13.0 0.00 0.00 0.00 20 1023.5
20210925191435 73 205 8.0 14.0 0.00 0.00 0.00 20 1023.6
20210925190934 73 105 7.0 17.0 0.00 0.00 0.00 21 1023.8
20210925190434 74 104 7.0 17.0 0.00 0.00 0.00 20 1023.8
20210925185934 73 86 7.0 16.0 0.00 0.00 0.00 20 1023.8
20210925185434 73 98 7.0 14.0 0.00 0.00 0.00 19 1023.8
20210925184933 72 56 8.0 18.0 0.00 0.00 0.00 20 1024.1
20210925184437 72 98 7.0 18.0 0.00 0.00 0.00 19 1024.1
20210925183934 73 48 6.0 14.0 0.00 0.00 0.00 20 1024.1
20210925183434 72 60 5.0 14.0 0.00 0.00 0.00 20 1024.3
20210925182934 72 68 6.0 14.0 0.00 0.00 0.00 20 1024.2
20210925182434 72 92 6.0 13.0 0.00 0.00 0.00 19 1024.3
20210925181934 72 79 7.0 17.0 0.00 0.00 0.00 19 1024.5
20210925181434 71 54 8.0 17.0 0.00 0.00 0.00 19 1024.6
20210925180934 72 330 6.0 13.0 0.00 0.00 0.00 19 1024.6
20210925180432 71 9 5.0 13.0 0.00 0.00 0.00 20 1024.7
20210925175932 71 89 6.0 13.0 0.00 0.00 0.00 20 1024.7
20210925175432 70 75 6.0 11.0 0.00 0.00 0.00 20 1024.8
20210925174932 71 74 6.0 11.0 0.00 0.00 0.00 21 1024.8
20210925174431 70 46 5.0 13.0 0.00 0.00 0.00 22 1024.8
20210925173930 70 51 4.0 13.0 0.00 0.00 0.00 22 1024.8
20210925173430 70 111 4.0 11.0 0.00 0.00 0.00 21 1025.1
20210925172928 70 111 5.0 10.0 0.00 0.00 0.00 22 1025.1
20210925172428 70 96 6.0 12.0 0.00 0.00 0.00 23 1025.2
20210925171928 69 82 6.0 12.0 0.00 0.00 0.00 22 1025.2
20210925171426 69 133 6.0 10.0 0.00 0.00 0.00 21 1025.3
20210925170926 70 142 5.0 10.0 0.00 0.00 0.00 21 1025.5
20210925170426 70 86 5.0 10.0 0.00 0.00 0.00 21 1025.5
20210925165926 69 59 5.0 10.0 0.00 0.00 0.00 22 1025.3
20210925165426 69 136 5.0 11.0 0.00 0.00 0.00 22 1025.5
20210925164926 69 91 4.0 11.0 0.00 0.00 0.00 21 1025.6
20210925164426 69 113 3.0 8.0 0.00 0.00 0.00 22 1025.5
20210925163926 69 17 2.0 6.0 0.00 0.00 0.00 21 1025.6
20210925163426 69 93 2.0 8.0 0.00 0.00 0.00 22 1025.6
20210925162925 69 82 3.0 8.0 0.00 0.00 0.00 22 1025.7
20210925162426 69 96 3.0 7.0 0.00 0.00 0.00 21 1025.7
20210925161925 68 95 4.0 9.0 0.00 0.00 0.00 21 1025.7
20210925161426 68 110 4.0 9.0 0.00 0.00 0.00 22 1025.7
20210925160925 68 57 3.0 9.0 0.00 0.00 0.00 21 1025.8
20210925160426 68 20 3.0 8.0 0.00 0.00 0.00 23 1025.8
20210925155926 68 170 2.0 7.0 0.00 0.00 0.00 22 1025.8
20210925155425 68 96 1.0 5.0 0.00 0.00 0.00 23 1025.8
20210925154924 68 82 2.0 5.0 0.00 0.00 0.00 23 1025.8
20210925154422 67 103 2.0 5.0 0.00 0.00 0.00 23 1025.8
20210925153921 67 113 2.0 5.0 0.00 0.00 0.00 23 1025.8
20210925153422 68 84 1.0 4.0 0.00 0.00 0.00 23 1025.8
20210925152918 67 103 1.0 4.0 0.00 0.00 0.00 23 1025.8
20210925152415 66 214 0.0 2.0 0.00 0.00 0.00 26 1025.8
20210925151912 65 98 0.0 2.0 0.00 0.00 0.00 29 1025.8
20210925151410 64 129 0.0 2.0 0.00 0.00 0.00 34 1025.8
20210925150907 63 115 1.0 3.0 0.00 0.00 0.00 36 1025.8
20210925150408 62 111 2.0 3.0 0.00 0.00 0.00 37 1025.8
20210925145908 62 103 1.0 2.0 0.00 0.00 0.00 36 1025.8
20210925145406 63 101 0.0 2.0 0.00 0.00 0.00 36 1026.0
20210925144905 62 101 0.0 1.0 0.00 0.00 0.00 36 1026.0
20210925144402 62 128 0.0 1.0 0.00 0.00 0.00 37 1026.0
20210925143901 61 101 0.0 1.0 0.00 0.00 0.00 37 1026.0
20210925143402 60 101 0.0 1.0 0.00 0.00 0.00 38 1026.0
20210925142903 60 103 0.0 1.0 0.00 0.00 0.00 37 1026.1
20210925142401 60 321 0.0 1.0 0.00 0.00 0.00 39 1026.1
20210925141859 59 291 0.0 1.0 0.00 0.00 0.00 39 1026.0
20210925141400 57 291 0.0 1.0 0.00 0.00 0.00 42 1026.0
20210925140859 56 291 0.0 0.0 0.00 0.00 0.00 41 1026.1
20210925140359 55 291 0.0 0.0 0.00 0.00 0.00 42 1026.1
20210925135859 55 291 0.0 0.0 0.00 0.00 0.00 45 1026.1
20210925135400 54 291 0.0 0.0 0.00 0.00 0.00 46 1026.0
20210925134857 53 290 0.0 0.0 0.00 0.00 0.00 48 1026.0
20210925134357 52 291 0.0 0.0 0.00 0.00 0.00 50 1026.0
20210925133858 50 291 0.0 0.0 0.00 0.00 0.00 52 1026.0
20210925133358 49 290 0.0 0.0 0.00 0.00 0.00 51 1026.0
20210925132857 49 290 0.0 0.0 0.00 0.00 0.00 51 1025.8
20210925132354 0 0.0 0.0 0.00 0.00 0.00 1025.8
20210925131854 0 0.0 0.0 0.00 0.00 0.00 1025.7
20210925131354 0 0.0 0.0 0.00 0.00 0.00 1025.7
20210925130801 0 0.0 0.0 0.00 0.00 0.00 1025.8
20210925130302 0 0.0 0.0 0.00 0.00 0.00 1025.7
20210925125758 0 0.0 0.0 0.00 0.00 0.00 1025.8
20210925125258 0 0.0 0.0 0.00 0.00 0.00 1025.7
20210925124754 0 0.0 0.0 0.00 0.00 0.00 1025.6
20210925124159 0 0.0 0.0 0.00 0.00 0.00 1025.7
20210925123655 0 0.0 0.0 0.00 0.00 0.00 1025.6
20210925123059 0 0.0 0.0 0.00 0.00 0.00 1025.6
20210925122555 0 0.0 0.0 0.00 0.00 0.00 1025.5
20210925122052 0 0.0 0.0 0.00 0.00 0.00 1025.5
20210925121551 0 0.0 0.0 0.00 0.00 0.00 1025.3
20210925120959 0 0.0 0.0 0.00 0.00 0.00 1025.3
20210925120458 0 0.0 0.0 0.00 0.00 0.00 1025.5
20210925115958 0 0.0 0.0 0.00 0.00 0.00 1025.3
20210925115458 0 0.0 0.0 0.00 0.00 0.00 1025.5
20210925114957 0 0.0 0.0 0.00 0.00 0.00 1025.5
20210925114456 0 0.0 0.0 0.00 0.00 0.00 1025.3
20210925113944 0 0.0 0.0 0.00 0.00 0.00 1025.5
20210925113353 0 0.0 0.0 0.00 0.00 0.00 1025.5
20210925112800 0 0.0 0.0 0.00 0.00 0.00 1025.5
20210925112256 0 0.0 0.0 0.00 0.00 0.00 1025.5
20210925111754 0 0.0 0.0 0.00 0.00 0.00 1025.5
20210925111254 0 0.0 0.0 0.00 0.00 0.00 1025.5
20210925110753 0 0.0 0.0 0.00 0.00 0.00 1025.5
20210925110205 0 0.0 0.0 0.00 0.00 0.00 1025.5
20210925105704 0 0.0 0.0 0.00 0.00 0.00 1025.5
20210925105153 0 0.0 0.0 0.00 0.00 0.00 1025.5
20210925104649 0 0.0 0.0 0.00 0.00 0.00 1025.3
20210925104055 0 0.0 0.0 0.00 0.00 0.00 1025.3
20210925103502 0 0.0 0.0 0.00 0.00 0.00 1025.3
20210925103001 0 0.0 0.0 0.00 0.00 0.00 1025.3
20210925102455 0 0.0 0.0 0.00 0.00 0.00 1025.3
20210925101952 44 291 0.0 0.0 0.00 0.00 0.00 60 1025.2
20210925101452 44 291 0.0 1.0 0.00 0.00 0.00 60 1025.2
20210925100911 44 291 0.0 1.0 0.00 0.00 0.00 60 1025.2
20210925100411 44 291 0.0 1.0 0.00 0.00 0.00 60 1025.2
20210925095908 45 291 0.0 1.0 0.00 0.00 0.00 60 1025.1
20210925095407 45 291 0.0 1.0 0.00 0.00 0.00 60 1025.1
20210925094906 45 291 0.0 0.0 0.00 0.00 0.00 61 1025.0
20210925094405 45 291 0.0 0.0 0.00 0.00 0.00 62 1025.1
20210925093904 44 291 0.0 0.0 0.00 0.00 0.00 63 1025.0
20210925093405 44 291 0.0 1.0 0.00 0.00 0.00 63 1025.0
20210925092903 44 291 0.0 1.0 0.00 0.00 0.00 63 1025.0
20210925092403 44 291 0.0 1.0 0.00 0.00 0.00 63 1025.0
20210925091902 44 296 0.0 1.0 0.00 0.00 0.00 63 1025.0
20210925091404 44 297 0.0 1.0 0.00 0.00 0.00 63 1025.1
20210925090902 44 297 0.0 1.0 0.00 0.00 0.00 64 1025.1
20210925090402 44 296 0.0 0.0 0.00 0.00 0.00 64 1025.1
20210925085902 44 296 0.0 1.0 0.00 0.00 0.00 64 1025.1
20210925085402 44 296 0.0 1.0 0.00 0.00 0.00 65 1025.1
20210925084903 44 277 0.0 0.0 0.00 0.00 0.00 66 1025.2
20210925084402 44 277 0.0 1.0 0.00 0.00 0.00 66 1025.2
20210925083901 43 277 0.0 1.0 0.00 0.00 0.00 66 1025.3
20210925083401 43 276 0.0 1.0 0.00 0.00 0.00 66 1025.3
20210925082901 43 276 0.0 1.0 0.00 0.00 0.00 66 1025.3
20210925082401 43 307 0.0 1.0 0.00 0.00 0.00 67 1025.5
20210925081901 43 319 0.0 1.0 0.00 0.00 0.00 67 1025.5
20210925081401 43 319 0.0 1.0 0.00 0.00 0.00 67 1025.3
20210925080904 43 280 0.0 1.0 0.00 0.00 0.00 67 1025.5
20210925080401 43 279 0.0 1.0 0.00 0.00 0.00 67 1025.5
20210925075901 43 280 0.0 1.0 0.00 0.00 0.00 66 1025.5
20210925075400 43 279 0.0 1.0 0.00 0.00 0.00 67 1025.6
20210925074859 43 280 0.0 0.0 0.00 0.00 0.00 67 1025.6
20210925074358 43 280 0.0 0.0 0.00 0.00 0.00 67 1025.6
20210925073859 43 280 0.0 0.0 0.00 0.00 0.00 67 1025.6
20210925073358 43 280 0.0 0.0 0.00 0.00 0.00 67 1025.6
20210925072859 43 279 0.0 0.0 0.00 0.00 0.00 66 1025.6
20210925072359 43 280 0.0 0.0 0.00 0.00 0.00 66 1025.7
20210925071859 44 280 0.0 1.0 0.00 0.00 0.00 65 1025.7
20210925071359 44 279 0.0 1.0 0.00 0.00 0.00 64 1025.7
20210925070900 44 279 0.0 0.0 0.00 0.00 0.00 64 1025.7
20210925070358 44 279 0.0 0.0 0.00 0.00 0.00 64 1025.8
20210925065859 44 280 0.0 1.0 0.00 0.00 0.00 64 1025.8
20210925065358 44 279 0.0 1.0 0.00 0.00 0.00 64 1026.0
20210925064859 44 280 0.0 1.0 0.00 0.00 0.00 64 1026.0
20210925064356 44 280 0.0 0.0 0.00 0.00 0.00 64 1026.0
20210925063857 45 279 0.0 0.0 0.00 0.00 0.00 62 1026.0
20210925063356 45 279 0.0 0.0 0.00 0.00 0.00 62 1026.1
20210925062857 45 280 0.0 0.0 0.00 0.00 0.00 62 1026.1
20210925062357 46 280 0.0 0.0 0.00 0.00 0.00 61 1026.1
20210925061856 46 280 0.0 0.0 0.00 0.00 0.00 61 1026.1
20210925061357 46 280 0.0 1.0 0.00 0.00 0.00 61 1026.2
20210925060856 46 279 0.0 1.0 0.00 0.00 0.00 61 1026.2
20210925060357 46 280 0.0 1.0 0.00 0.00 0.00 62 1026.3
20210925055856 45 279 0.0 1.0 0.00 0.00 0.00 62 1026.3
20210925055357 45 279 0.0 1.0 0.00 0.00 0.00 62 1026.3
20210925054854 46 279 0.0 0.0 0.00 0.00 0.00 62 1026.3
20210925054354 46 280 0.0 0.0 0.00 0.00 0.00 61 1026.3
20210925053855 46 279 0.0 1.0 0.00 0.00 0.00 61 1026.3
20210925053352 46 279 0.0 1.0 0.00 0.00 0.00 60 1026.3
20210925052853 47 266 0.0 1.0 0.00 0.00 0.00 60 1026.5
20210925052352 47 314 0.0 1.0 0.00 0.00 0.00 59 1026.3
20210925051850 47 313 0.0 1.0 0.00 0.00 0.00 59 1026.5
20210925051351 47 274 0.0 1.0 0.00 0.00 0.00 59 1026.3
20210925050850 47 274 0.0 1.0 0.00 0.00 0.00 59 1026.3
20210925050351 47 233 0.0 1.0 0.00 0.00 0.00 60 1026.5
20210925045851 47 286 0.0 1.0 0.00 0.00 0.00 60 1026.5
20210925045350 47 286 0.0 1.0 0.00 0.00 0.00 60 1026.5
20210925044851 47 286 0.0 2.0 0.00 0.00 0.00 60 1026.6
20210925044351 47 298 0.0 2.0 0.00 0.00 0.00 60 1026.6
20210925043850 47 300 0.0 0.0 0.00 0.00 0.00 61 1026.7
20210925043351 47 300 0.0 0.0 0.00 0.00 0.00 61 1026.7
20210925042851 47 300 0.0 0.0 0.00 0.00 0.00 60 1026.7
20210925042350 47 300 0.0 1.0 0.00 0.00 0.00 60 1026.7
20210925041851 47 300 0.0 1.0 0.00 0.00 0.00 60 1026.7
20210925041350 47 300 0.0 0.0 0.00 0.00 0.00 60 1026.8
20210925040851 47 300 0.0 0.0 0.00 0.00 0.00 60 1026.8
20210925040350 47 300 0.0 0.0 0.00 0.00 0.00 59 1027.0
20210925035851 47 300 0.0 0.0 0.00 0.00 0.00 59 1026.8
20210925035350 48 300 0.0 0.0 0.00 0.00 0.00 59 1027.0
20210925034848 47 300 0.0 0.0 0.00 0.00 0.00 59 1027.0
20210925034346 48 300 0.0 0.0 0.00 0.00 0.00 59 1027.1
20210925033847 47 300 0.0 0.0 0.00 0.00 0.00 59 1027.1
20210925033344 47 300 0.0 0.0 0.00 0.00 0.00 59 1027.1
20210925032842 47 300 0.0 0.0 0.00 0.00 0.00 59 1027.1
20210925032342 48 300 0.0 0.0 0.00 0.00 0.00 58 1027.1
20210925031842 48 300 0.0 0.0 0.00 0.00 0.00 58 1027.1
20210925031340 48 300 0.0 0.0 0.00 0.00 0.00 57 1027.1
20210925030840 49 300 0.0 0.0 0.00 0.00 0.00 57 1027.1
20210925030340 49 300 0.0 0.0 0.00 0.00 0.00 57 1027.1
20210925025840 49 300 0.0 0.0 0.00 0.00 0.00 57 1027.1
20210925025341 49 300 0.0 0.0 0.00 0.00 0.00 57 1027.0
20210925024840 49 300 0.0 0.0 0.00 0.00 0.00 56 1027.0
20210925024339 49 300 0.0 0.0 0.00 0.00 0.00 56 1027.0
20210925023838 50 300 0.0 0.0 0.00 0.00 0.00 56 1027.0
20210925023338 50 300 0.0 0.0 0.00 0.00 0.00 55 1027.0
20210925022839 50 300 0.0 0.0 0.00 0.00 0.00 55 1027.0
20210925022339 50 300 0.0 0.0 0.00 0.00 0.00 55 1026.8
20210925021838 50 300 0.0 0.0 0.00 0.00 0.00 54 1026.8
20210925021338 50 300 0.0 0.0 0.00 0.00 0.00 54 1026.7
20210925020838 51 300 0.0 0.0 0.00 0.00 0.00 53 1026.7
20210925020338 51 300 0.0 0.0 0.00 0.00 0.00 53 1026.6
20210925015838 51 300 0.0 0.0 0.00 0.00 0.00 52 1026.6
20210925015337 51 300 0.0 0.0 0.00 0.00 0.00 52 1026.6
20210925014836 52 300 0.0 0.0 0.00 0.00 0.00 51 1026.6
20210925014337 52 300 0.0 0.0 0.00 0.00 0.00 51 1026.6
20210925013836 53 300 0.0 1.0 0.00 0.00 0.00 51 1026.5
20210925013334 53 300 0.0 1.0 0.00 0.00 0.00 50 1026.5
20210925012834 53 301 0.0 0.0 0.00 0.00 0.00 50 1026.5